Simultaneous Nadir Overpasses (SNOs) Predictions

Prediction of SNOs over PacNW region [( 10.00, 139.50) to ( 22.70, 165.60)] between AQUA and NPP Satellites:

Table of predicted SNOs over PacNW region for the next 30.0 days since TLE Epoch: 10/30/2021
Index Date (AQUA) Time (AQUA) AQUA Lat,Lon Date (NPP) Time (NPP) NPP Lat,Lon Distance(km) Time Diff (sec)
1 11/03/2021 15:59:30 22.63, 147.49 11/03/2021 16:02:59 23.97, 144.56 334.27 209
2 11/06/2021 02:42:29 22.66, 159.87 11/06/2021 02:39:00 26.11, 157.36 460.27 209
3 11/11/2021 15:10:07 22.61, 159.84 11/11/2021 15:12:37 23.24, 157.03 295.78 150
4 11/14/2021 03:31:58 22.68, 147.50 11/14/2021 03:28:50 22.29, 145.62 198.71 188
5 11/19/2021 15:59:34 22.58, 147.48 11/19/2021 16:03:02 24.98, 144.76 384.35 208
6 11/22/2021 02:42:30 22.65, 159.88 11/22/2021 02:39:01 25.02, 157.59 351.51 209
